QPF
0.00 0.01 0.03 0.03 0.04 0.05 0.05 0.03 0.02 0.02 0.02 0.03 0.05 0.05 0.04 0.02 0.02 0.02 0.03 0.04 0.06 0.06 0.05 0.04 0.04 0.04 0.04 0.05 0.06 0.06 0.06 0.05 0.05 0.04 0.04 0.03 0.03 0.03 0.03 0.02 0.01 0.02 0.04
0.01 0.01 0.03 0.04 0.04 0.06 0.06 0.04 0.02 0.02 0.01 0.02 0.05 0.06 0.04 0.02 0.03 0.03 0.04 0.05 0.08 0.09 0.07 0.07 0.06 0.06 0.05 0.06 0.05 0.05 0.03 0.03 0.03 0.03 0.03 0.04 0.04 0.03 0.02 0.02 0.01 0.03 0.03
0.00 0.01 0.02 0.04 0.03 0.04 0.06 0.05 0.03 0.02 0.02 0.02 0.03 0.04 0.03 0.03 0.04 0.04 0.04 0.05 0.06 0.07 0.08 0.07 0.08 0.08 0.05 0.05 0.05 0.04 0.03 0.03 0.03 0.03 0.03 0.02 0.03 0.05 0.03 0.03 0.03 0.03 0.03
0.00 0.01 0.02 0.03 0.03 0.03 0.04 0.05 0.03 0.02 0.02 0.03 0.03 0.03 0.04 0.04 0.05 0.06 0.06 0.06 0.05 0.05 0.05 0.05 0.07 0.07 0.04 0.03 0.03 0.03 0.03 0.04 0.03 0.02 0.02 0.01 0.02 0.06 0.05 0.04 0.04 0.04 0.04
0.00 0.00 0.01 0.03 0.04 0.04 0.04 0.04 0.04 0.03 0.03 0.03 0.03 0.03 0.04 0.04 0.05 0.06 0.07 0.06 0.05 0.04 0.04 0.05 0.06 0.05 0.04 0.04 0.03 0.03 0.04 0.04 0.03 0.02 0.01 0.01 0.04 0.09 0.05 0.04 0.04 0.04 0.04
0.01 0.01 0.01 0.03 0.04 0.04 0.04 0.04 0.04 0.04 0.04 0.04 0.04 0.05 0.05 0.04 0.04 0.05 0.05 0.05 0.05 0.04 0.03 0.04 0.05 0.04 0.03 0.03 0.04 0.04 0.04 0.04 0.04 0.02 0.01 0.02 0.04 0.07 0.05 0.03 0.04 0.05 0.04
0.01 0.01 0.02 0.04 0.04 0.04 0.03 0.04 0.04 0.05 0.05 0.05 0.05 0.06 0.06 0.05 0.05 0.05 0.05 0.05 0.06 0.05 0.04 0.04 0.04 0.04 0.03 0.04 0.04 0.04 0.04 0.04 0.04 0.03 0.01 0.02 0.04 0.06 0.05 0.04 0.04 0.05 0.05
0.01 0.01 0.02 0.04 0.05 0.05 0.04 0.04 0.05 0.05 0.06 0.06 0.06 0.05 0.05 0.04 0.04 0.05 0.05 0.06 0.08 0.06 0.04 0.04 0.04 0.04 0.03 0.04 0.04 0.04 0.04 0.04 0.04 0.04 0.02 0.03 0.07 0.07 0.06 0.05 0.05 0.06 0.05
0.01 0.01 0.02 0.03 0.04 0.04 0.04 0.04 0.04 0.04 0.05 0.06 0.05 0.03 0.03 0.03 0.04 0.04 0.05 0.06 0.09 0.08 0.06 0.05 0.05 0.04 0.03 0.04 0.04 0.04 0.04 0.04 0.04 0.03 0.02 0.04 0.07 0.06 0.05 0.05 0.05 0.05 0.04
0.02 0.02 0.02 0.02 0.03 0.03 0.03 0.04 0.03 0.04 0.03 0.04 0.04 0.04 0.04 0.05 0.06 0.07 0.07 0.05 0.07 0.08 0.08 0.07 0.07 0.06 0.04 0.04 0.04 0.03 0.03 0.04 0.04 0.03 0.03 0.04 0.06 0.05 0.05 0.04 0.04 0.05 0.05
0.02 0.02 0.03 0.03 0.03 0.04 0.03 0.03 0.05 0.04 0.04 0.04 0.04 0.04 0.05 0.07 0.07 0.06 0.05 0.04 0.05 0.07 0.09 0.09 0.08 0.07 0.05 0.04 0.04 0.04 0.03 0.04 0.04 0.03 0.03 0.06 0.04 0.03 0.03 0.03 0.04 0.04 0.04
0.02 0.02 0.03 0.03 0.03 0.04 0.03 0.04 0.05 0.06 0.05 0.03 0.03 0.04 0.05 0.08 0.08 0.06 0.05 0.04 0.04 0.06 0.07 0.08 0.07 0.06 0.05 0.04 0.03 0.03 0.03 0.03 0.03 0.03 0.04 0.06 0.05 0.04 0.03 0.03 0.02 0.02 0.03
0.03 0.03 0.03 0.03 0.03 0.04 0.04 0.04 0.05 0.05 0.04 0.04 0.03 0.03 0.05 0.07 0.08 0.07 0.05 0.03 0.03 0.05 0.06 0.06 0.05 0.04 0.04 0.03 0.03 0.03 0.03 0.03 0.03 0.03 0.04 0.06 0.05 0.04 0.03 0.02 0.02 0.02 0.02
0.03 0.03 0.04 0.04 0.04 0.04 0.04 0.05 0.05 0.06 0.05 0.05 0.03 0.03 0.04 0.06 0.06 0.04 0.04 0.03 0.03 0.04 0.05 0.05 0.04 0.03 0.03 0.03 0.03 0.03 0.04 0.04 0.03 0.03 0.04 0.05 0.04 0.04 0.03 0.03 0.03 0.03 0.03
0.04 0.04 0.04 0.04 0.04 0.04 0.04 0.04 0.05 0.06 0.08 0.06 0.04 0.03 0.05 0.06 0.05 0.02 0.02 0.03 0.03 0.04 0.05 0.05 0.05 0.03 0.03 0.04 0.03 0.03 0.04 0.04 0.04 0.03 0.03 0.04 0.03 0.03 0.04 0.04 0.04 0.04 0.03
0.06 0.05 0.05 0.04 0.04 0.05 0.04 0.04 0.05 0.06 0.11 0.09 0.05 0.04 0.05 0.05 0.04 0.02 0.02 0.02 0.02 0.03 0.04 0.05 0.06 0.04 0.04 0.04 0.03 0.03 0.03 0.03 0.03 0.03 0.03 0.03 0.03 0.02 0.03 0.04 0.05 0.03 0.02
0.06 0.06 0.06 0.06 0.05 0.06 0.05 0.04 0.05 0.06 0.10 0.10 0.06 0.05 0.07 0.06 0.03 0.02 0.02 0.02 0.02 0.02 0.03 0.03 0.04 0.04 0.04 0.04 0.03 0.03 0.02 0.02 0.02 0.02 0.02 0.01 0.01 0.01 0.03 0.04 0.04 0.02 0.02
0.05 0.06 0.06 0.06 0.06 0.05 0.05 0.05 0.04 0.06 0.08 0.10 0.09 0.07 0.09 0.07 0.03 0.02 0.02 0.02 0.02 0.02 0.02 0.02 0.02 0.03 0.04 0.04 0.03 0.03 0.02 0.01 0.01 0.01 0.01 0.01 0.01 0.01 0.01 0.02 0.02 0.02 0.02
0.04 0.05 0.06 0.07 0.06 0.05 0.05 0.05 0.05 0.06 0.07 0.11 0.12 0.10 0.11 0.06 0.03 0.03 0.02 0.02 0.02 0.02 0.02 0.02 0.01 0.01 0.02 0.03 0.04 0.03 0.02 0.01 0.01 0.01 0.01 0.01 0.01 0.01 0.00 0.01 0.01 0.01 0.01
0.04 0.06 0.07 0.07 0.07 0.06 0.06 0.06 0.06 0.07 0.10 0.11 0.13 0.13 0.12 0.06 0.03 0.03 0.02 0.02 0.02 0.03 0.04 0.03 0.02 0.01 0.01 0.01 0.02 0.03 0.02 0.02 0.01 0.01 0.01 0.01 0.01 0.01 0.00 0.01 0.01 0.01 0.01
0.05 0.07 0.08 0.08 0.07 0.06 0.05 0.06 0.06 0.06 0.10 0.13 0.14 0.13 0.09 0.05 0.04 0.03 0.03 0.02 0.02 0.03 0.05 0.06 0.05 0.03 0.02 0.02 0.02 0.02 0.02 0.02 0.02 0.01 0.01 0.01 0.00 0.01 0.01 0.01 0.01 0.01 0.01
0.06 0.07 0.08 0.08 0.07 0.06 0.05 0.06 0.09 0.06 0.07 0.12 0.13 0.11 0.06 0.03 0.03 0.04 0.04 0.03 0.03 0.04 0.05 0.06 0.06 0.05 0.04 0.03 0.03 0.03 0.03 0.02 0.02 0.01 0.01 0.01 0.01 0.00 0.01 0.01 0.01 0.00 0.00
0.06 0.06 0.07 0.08 0.07 0.06 0.05 0.04 0.09 0.14 0.09 0.12 0.13 0.10 0.06 0.03 0.02 0.03 0.03 0.03 0.03 0.04 0.05 0.07 0.06 0.04 0.04 0.03 0.03 0.03 0.03 0.02 0.02 0.01 0.01 0.01 0.01 0.01 0.01 0.01 0.01 0.00 0.01
0.04 0.05 0.05 0.06 0.07 0.07 0.05 0.04 0.05 0.16 0.19 0.13 0.11 0.09 0.06 0.03 0.02 0.02 0.03 0.03 0.03 0.04 0.04 0.04 0.06 0.07 0.06 0.05 0.05 0.04 0.03 0.02 0.02 0.02 0.01 0.01 0.01 0.01 0.01 0.01 0.00 0.00 0.01
0.03 0.03 0.03 0.04 0.05 0.07 0.06 0.05 0.05 0.09 0.20 0.21 0.13 0.09 0.07 0.05 0.04 0.03 0.02 0.03 0.03 0.03 0.04 0.04 0.04 0.04 0.05 0.06 0.06 0.06 0.04 0.03 0.02 0.01 0.01 0.01 0.01 0.01 0.01 0.01 0.01 0.01 0.00
0.02 0.03 0.03 0.03 0.04 0.05 0.05 0.04 0.04 0.07 0.15 0.21 0.18 0.12 0.09 0.07 0.06 0.05 0.03 0.03 0.03 0.02 0.03 0.04 0.05 0.04 0.04 0.04 0.04 0.05 0.05 0.04 0.03 0.02 0.01 0.01 0.01 0.02 0.01 0.01 0.01 0.01 0.00
MSLP
1014.52 1014.33 1014.28 1014.40 1014.66 1015.00 1015.36 1015.66 1015.89 1016.01 1016.05 1016.06 1016.09 1016.18 1016.35 1016.59 1016.87 1017.15 1017.38 1017.53 1017.62 1017.67 1017.71 1017.78 1017.91 1018.11 1018.36 1018.62 1018.87 1019.07 1019.20 1019.27 1019.30 1019.31 1019.34 1019.39 1019.46 1019.56 1019.65 1019.73 1019.78 1019.81 1019.83
1014.09 1013.98 1014.02 1014.23 1014.58 1015.00 1015.42 1015.78 1016.04 1016.18 1016.24 1016.26 1016.30 1016.41 1016.62 1016.90 1017.22 1017.54 1017.82 1018.01 1018.13 1018.19 1018.24 1018.30 1018.42 1018.60 1018.82 1019.07 1019.30 1019.50 1019.63 1019.71 1019.75 1019.79 1019.84 1019.92 1020.02 1020.13 1020.23 1020.31 1020.36 1020.39 1020.42
1013.61 1013.60 1013.74 1014.04 1014.48 1014.98 1015.47 1015.89 1016.18 1016.36 1016.44 1016.48 1016.53 1016.66 1016.87 1017.17 1017.52 1017.86 1018.16 1018.39 1018.53 1018.62 1018.68 1018.76 1018.88 1019.06 1019.28 1019.52 1019.75 1019.94 1020.08 1020.17 1020.23 1020.29 1020.37 1020.47 1020.59 1020.72 1020.83 1020.92 1020.98 1021.01 1021.04
1013.22 1013.30 1013.53 1013.92 1014.43 1015.00 1015.54 1016.00 1016.34 1016.54 1016.64 1016.70 1016.76 1016.89 1017.10 1017.39 1017.73 1018.08 1018.39 1018.63 1018.80 1018.92 1019.02 1019.13 1019.28 1019.48 1019.72 1019.97 1020.21 1020.41 1020.56 1020.67 1020.75 1020.83 1020.92 1021.04 1021.17 1021.31 1021.44 1021.54 1021.60 1021.65 1021.69
1013.01 1013.18 1013.49 1013.94 1014.50 1015.09 1015.66 1016.14 1016.50 1016.72 1016.84 1016.90 1016.97 1017.09 1017.29 1017.56 1017.88 1018.21 1018.51 1018.76 1018.96 1019.12 1019.26 1019.43 1019.63 1019.87 1020.15 1020.43 1020.69 1020.91 1021.08 1021.20 1021.29 1021.38 1021.49 1021.61 1021.75 1021.90 1022.03 1022.14 1022.22 1022.29 1022.34
1013.06 1013.29 1013.65 1014.13 1014.69 1015.28 1015.84 1016.31 1016.66 1016.89 1017.02 1017.10 1017.18 1017.29 1017.47 1017.72 1018.01 1018.32 1018.61 1018.86 1019.08 1019.28 1019.48 1019.71 1019.97 1020.27 1020.60 1020.92 1021.21 1021.45 1021.63 1021.76 1021.86 1021.95 1022.05 1022.17 1022.31 1022.45 1022.60 1022.72 1022.82 1022.91 1023.00
1013.33 1013.62 1014.00 1014.47 1015.00 1015.54 1016.05 1016.49 1016.82 1017.05 1017.20 1017.30 1017.39 1017.52 1017.69 1017.92 1018.19 1018.47 1018.75 1019.01 1019.25 1019.48 1019.73 1020.01 1020.34 1020.69 1021.06 1021.42 1021.74 1022.00 1022.19 1022.33 1022.43 1022.51 1022.61 1022.71 1022.84 1022.98 1023.13 1023.27 1023.40 1023.52 1023.64
1013.76 1014.08 1014.46 1014.90 1015.37 1015.85 1016.29 1016.67 1016.98 1017.21 1017.37 1017.51 1017.64 1017.79 1017.99 1018.22 1018.48 1018.75 1019.01 1019.27 1019.52 1019.78 1020.06 1020.38 1020.75 1021.14 1021.54 1021.92 1022.26 1022.54 1022.74 1022.88 1022.98 1023.06 1023.14 1023.24 1023.36 1023.50 1023.65 1023.80 1023.95 1024.11 1024.26
1014.22 1014.57 1014.94 1015.34 1015.74 1016.14 1016.52 1016.85 1017.12 1017.36 1017.56 1017.74 1017.93 1018.14 1018.37 1018.62 1018.89 1019.16 1019.42 1019.67 1019.93 1020.20 1020.50 1020.83 1021.21 1021.61 1022.02 1022.41 1022.75 1023.04 1023.25 1023.40 1023.51 1023.59 1023.67 1023.76 1023.88 1024.01 1024.17 1024.33 1024.51 1024.68 1024.87
1014.58 1014.97 1015.35 1015.72 1016.07 1016.40 1016.71 1017.00 1017.26 1017.51 1017.75 1018.00 1018.25 1018.52 1018.81 1019.10 1019.39 1019.68 1019.94 1020.19 1020.45 1020.71 1021.01 1021.34 1021.71 1022.10 1022.49 1022.87 1023.21 1023.49 1023.71 1023.87 1024.00 1024.09 1024.19 1024.29 1024.40 1024.54 1024.70 1024.87 1025.06 1025.26 1025.47
1014.78 1015.22 1015.63 1015.99 1016.32 1016.61 1016.89 1017.15 1017.41 1017.68 1017.96 1018.27 1018.59 1018.93 1019.27 1019.61 1019.93 1020.23 1020.51 1020.76 1021.02 1021.28 1021.56 1021.88 1022.22 1022.58 1022.94 1023.30 1023.62 1023.90 1024.13 1024.31 1024.46 1024.58 1024.70 1024.82 1024.94 1025.09 1025.25 1025.43 1025.63 1025.84 1026.06
1014.78 1015.30 1015.76 1016.15 1016.49 1016.77 1017.04 1017.30 1017.57 1017.87 1018.19 1018.54 1018.92 1019.31 1019.70 1020.07 1020.42 1020.74 1021.04 1021.31 1021.58 1021.84 1022.11 1022.41 1022.72 1023.05 1023.38 1023.71 1024.01 1024.29 1024.53 1024.74 1024.92 1025.08 1025.22 1025.36 1025.50 1025.66 1025.82 1026.01 1026.21 1026.42 1026.65
1014.64 1015.25 1015.78 1016.22 1016.59 1016.90 1017.19 1017.47 1017.76 1018.08 1018.43 1018.82 1019.22 1019.63 1020.04 1020.44 1020.81 1021.16 1021.48 1021.78 1022.07 1022.35 1022.63 1022.92 1023.22 1023.52 1023.83 1024.13 1024.42 1024.70 1024.95 1025.18 1025.39 1025.58 1025.76 1025.92 1026.08 1026.24 1026.40 1026.58 1026.78 1026.99 1027.22
1014.40 1015.10 1015.71 1016.23 1016.66 1017.02 1017.34 1017.65 1017.97 1018.31 1018.68 1019.07 1019.48 1019.89 1020.30 1020.70 1021.08 1021.45 1021.80 1022.14 1022.47 1022.78 1023.10 1023.41 1023.71 1024.02 1024.31 1024.60 1024.89 1025.16 1025.42 1025.67 1025.91 1026.12 1026.32 1026.49 1026.66 1026.81 1026.97 1027.14 1027.33 1027.53 1027.75
1014.13 1014.91 1015.60 1016.19 1016.69 1017.12 1017.50 1017.85 1018.21 1018.57 1018.94 1019.32 1019.71 1020.10 1020.49 1020.87 1021.25 1021.64 1022.02 1022.40 1022.79 1023.16 1023.53 1023.88 1024.22 1024.54 1024.85 1025.14 1025.42 1025.70 1025.97 1026.23 1026.48 1026.70 1026.90 1027.08 1027.24 1027.38 1027.53 1027.67 1027.84 1028.04 1028.26
1013.88 1014.71 1015.46 1016.11 1016.68 1017.17 1017.62 1018.03 1018.43 1018.82 1019.19 1019.56 1019.93 1020.28 1020.64 1021.00 1021.37 1021.77 1022.18 1022.61 1023.06 1023.50 1023.94 1024.35 1024.74 1025.10 1025.43 1025.74 1026.04 1026.32 1026.60 1026.86 1027.10 1027.32 1027.52 1027.68 1027.82 1027.95 1028.07 1028.19 1028.34 1028.52 1028.72
1013.64 1014.49 1015.27 1015.97 1016.59 1017.16 1017.67 1018.16 1018.61 1019.03 1019.43 1019.79 1020.14 1020.47 1020.79 1021.13 1021.50 1021.90 1022.34 1022.82 1023.32 1023.83 1024.33 1024.81 1025.26 1025.67 1026.04 1026.38 1026.70 1026.99 1027.27 1027.53 1027.77 1027.98 1028.16 1028.31 1028.43 1028.52 1028.61 1028.71 1028.83 1028.98 1029.17
1013.40 1014.23 1015.01 1015.74 1016.41 1017.04 1017.63 1018.19 1018.71 1019.19 1019.62 1020.00 1020.35 1020.67 1020.98 1021.31 1021.67 1022.07 1022.54 1023.05 1023.59 1024.15 1024.71 1025.25 1025.75 1026.21 1026.62 1027.00 1027.34 1027.66 1027.95 1028.21 1028.45 1028.66 1028.82 1028.95 1029.05 1029.12 1029.18 1029.25 1029.34 1029.46 1029.63
1013.12 1013.92 1014.68 1015.42 1016.12 1016.81 1017.48 1018.11 1018.71 1019.26 1019.74 1020.17 1020.54 1020.88 1021.20 1021.53 1021.89 1022.30 1022.78 1023.30 1023.87 1024.46 1025.05 1025.62 1026.16 1026.66 1027.11 1027.52 1027.90 1028.25 1028.57 1028.85 1029.11 1029.32 1029.49 1029.61 1029.69 1029.75 1029.78 1029.82 1029.88 1029.97 1030.10
1012.80 1013.55 1014.29 1015.02 1015.76 1016.50 1017.23 1017.94 1018.62 1019.23 1019.79 1020.27 1020.69 1021.06 1021.41 1021.76 1022.14 1022.56 1023.03 1023.56 1024.12 1024.70 1025.30 1025.88 1026.43 1026.96 1027.44 1027.90 1028.32 1028.71 1029.07 1029.40 1029.68 1029.93 1030.12 1030.26 1030.34 1030.39 1030.42 1030.44 1030.46 1030.51 1030.61
1012.45 1013.15 1013.87 1014.61 1015.37 1016.15 1016.93 1017.70 1018.44 1019.12 1019.74 1020.28 1020.75 1021.18 1021.58 1021.96 1022.36 1022.79 1023.26 1023.77 1024.31 1024.87 1025.44 1026.00 1026.55 1027.08 1027.59 1028.08 1028.55 1029.00 1029.42 1029.80 1030.15 1030.44 1030.68 1030.85 1030.97 1031.03 1031.06 1031.06 1031.06 1031.08 1031.13
1012.10 1012.79 1013.50 1014.24 1015.02 1015.83 1016.64 1017.45 1018.22 1018.94 1019.60 1020.19 1020.72 1021.20 1021.64 1022.08 1022.51 1022.96 1023.43 1023.92 1024.42 1024.94 1025.46 1025.99 1026.51 1027.04 1027.56 1028.08 1028.60 1029.10 1029.59 1030.05 1030.47 1030.83 1031.13 1031.35 1031.51 1031.61 1031.65 1031.66 1031.64 1031.63 1031.64
1011.80 1012.49 1013.21 1013.98 1014.77 1015.59 1016.41 1017.22 1017.99 1018.72 1019.39 1020.00 1020.57 1021.09 1021.59 1022.07 1022.54 1023.02 1023.49 1023.96 1024.44 1024.91 1025.38 1025.86 1026.35 1026.86 1027.38 1027.93 1028.49 1029.05 1029.61 1030.14 1030.63 1031.06 1031.43 1031.72 1031.93 1032.07 1032.14 1032.16 1032.14 1032.11 1032.09
1011.54 1012.26 1013.02 1013.81 1014.62 1015.44 1016.25 1017.03 1017.78 1018.47 1019.12 1019.73 1020.31 1020.86 1021.40 1021.93 1022.45 1022.96 1023.45 1023.92 1024.37 1024.81 1025.24 1025.68 1026.14 1026.62 1027.14 1027.70 1028.29 1028.89 1029.50 1030.09 1030.64 1031.13 1031.56 1031.90 1032.17 1032.35 1032.46 1032.50 1032.50 1032.47 1032.44
1011.31 1012.08 1012.88 1013.71 1014.54 1015.35 1016.14 1016.88 1017.57 1018.22 1018.82 1019.40 1019.98 1020.55 1021.12 1021.70 1022.26 1022.81 1023.33 1023.82 1024.27 1024.69 1025.09 1025.50 1025.93 1026.39 1026.90 1027.46 1028.06 1028.68 1029.31 1029.94 1030.52 1031.05 1031.52 1031.91 1032.21 1032.44 1032.58 1032.67 1032.70 1032.69 1032.66
1011.03 1011.85 1012.70 1013.57 1014.42 1015.24 1016.00 1016.70 1017.34 1017.93 1018.49 1019.04 1019.60 1020.18 1020.78 1021.39 1022.01 1022.61 1023.17 1023.69 1024.15 1024.57 1024.97 1025.36 1025.77 1026.22 1026.72 1027.26 1027.85 1028.47 1029.11 1029.73 1030.32 1030.86 1031.34 1031.75 1032.08 1032.34 1032.53 1032.65 1032.72 1032.75 1032.76
Thickness
5682 5684 5686 5687 5688 5688 5689 5689 5689 5690 5690 5691 5691 5692 5693 5694 5695 5696 5697 5698 5698 5699 5700 5701 5701 5702 5702 5702 5702 5702 5702 5702 5703 5703 5703 5703 5703 5703 5703 5703 5703 5703 5704
5680 5681 5683 5684 5684 5684 5685 5685 5685 5686 5686 5686 5687 5688 5689 5690 5691 5692 5692 5693 5694 5695 5696 5696 5697 5697 5697 5697 5697 5697 5697 5697 5697 5698 5698 5699 5699 5699 5699 5699 5699 5699 5699
5677 5678 5679 5679 5680 5680 5680 5681 5681 5681 5681 5682 5683 5684 5684 5685 5686 5687 5688 5688 5689 5690 5691 5691 5692 5692 5692 5692 5692 5692 5692 5692 5692 5693 5693 5694 5694 5694 5694 5694 5694 5694 5694
5672 5673 5674 5675 5675 5675 5675 5676 5676 5676 5677 5677 5678 5679 5680 5681 5681 5682 5683 5683 5684 5685 5685 5686 5686 5687 5687 5687 5686 5687 5687 5687 5687 5688 5688 5689 5689 5689 5690 5690 5690 5689 5689
5666 5667 5668 5669 5670 5670 5670 5670 5671 5671 5672 5672 5673 5674 5675 5676 5677 5677 5678 5678 5679 5680 5681 5681 5681 5681 5682 5682 5681 5681 5681 5681 5682 5682 5683 5684 5684 5684 5684 5684 5684 5684 5684
5659 5661 5662 5663 5664 5664 5665 5665 5666 5666 5667 5667 5668 5669 5670 5670 5671 5672 5673 5673 5674 5675 5675 5676 5676 5676 5676 5676 5676 5675 5675 5675 5676 5676 5678 5679 5679 5679 5679 5679 5679 5679 5679
5652 5654 5655 5657 5657 5658 5658 5659 5659 5660 5661 5662 5662 5663 5664 5665 5666 5667 5667 5668 5668 5669 5670 5670 5671 5671 5671 5671 5671 5670 5670 5670 5671 5670 5672 5673 5674 5674 5674 5673 5673 5673 5673
5644 5646 5648 5649 5650 5651 5652 5652 5653 5654 5655 5655 5656 5657 5658 5659 5660 5661 5662 5662 5663 5664 5664 5665 5666 5666 5666 5666 5665 5665 5664 5664 5664 5664 5666 5667 5667 5668 5667 5667 5667 5667 5667
5636 5638 5639 5641 5642 5643 5644 5645 5646 5647 5648 5648 5649 5650 5651 5652 5653 5654 5655 5656 5657 5658 5659 5660 5660 5661 5660 5660 5659 5659 5658 5658 5658 5658 5660 5660 5661 5661 5661 5661 5661 5661 5660
5627 5629 5630 5632 5634 5636 5637 5637 5638 5639 5640 5641 5641 5642 5643 5645 5646 5647 5648 5649 5650 5651 5652 5654 5654 5654 5654 5653 5652 5652 5652 5651 5652 5653 5653 5654 5654 5654 5654 5654 5654 5654 5654
5617 5620 5621 5623 5625 5627 5628 5629 5630 5631 5632 5633 5634 5634 5636 5637 5638 5639 5641 5642 5643 5644 5645 5646 5647 5646 5646 5645 5645 5645 5645 5644 5645 5646 5647 5647 5647 5648 5647 5647 5647 5647 5646
5607 5609 5612 5614 5616 5618 5620 5621 5622 5623 5624 5625 5626 5627 5628 5630 5631 5632 5632 5634 5634 5635 5636 5637 5638 5638 5637 5637 5637 5637 5637 5637 5638 5639 5639 5640 5640 5640 5640 5640 5639 5639 5639
5597 5599 5602 5604 5606 5609 5611 5612 5613 5614 5615 5617 5618 5619 5621 5622 5623 5623 5624 5625 5627 5627 5628 5627 5628 5628 5629 5629 5629 5629 5629 5630 5630 5631 5631 5632 5633 5633 5633 5632 5632 5631 5631
5588 5590 5593 5595 5597 5600 5602 5603 5605 5606 5607 5609 5610 5611 5613 5614 5615 5616 5616 5617 5618 5619 5620 5619 5619 5620 5620 5621 5621 5621 5621 5621 5621 5622 5623 5624 5624 5625 5625 5625 5624 5624 5623
5580 5581 5584 5587 5589 5591 5593 5594 5596 5597 5599 5601 5602 5604 5606 5607 5607 5608 5609 5609 5610 5611 5611 5610 5610 5611 5612 5612 5612 5612 5612 5612 5612 5613 5614 5615 5616 5617 5617 5617 5616 5616 5615
5571 5573 5574 5578 5580 5582 5584 5586 5588 5589 5591 5592 5594 5595 5597 5599 5600 5601 5601 5601 5602 5603 5603 5603 5602 5602 5602 5602 5602 5602 5602 5603 5603 5604 5605 5606 5606 5608 5609 5609 5608 5608 5607
5563 5564 5565 5568 5571 5574 5576 5578 5580 5581 5582 5584 5586 5587 5589 5591 5593 5594 5593 5593 5594 5595 5595 5594 5593 5593 5593 5592 5592 5592 5593 5593 5594 5594 5595 5596 5597 5598 5599 5599 5599 5599 5598
5554 5556 5557 5559 5562 5565 5567 5569 5571 5572 5574 5576 5577 5579 5580 5583 5584 5585 5586 5585 5586 5587 5587 5586 5585 5584 5583 5582 5582 5582 5582 5583 5584 5585 5586 5586 5587 5588 5589 5589 5589 5589 5590
5546 5548 5549 5551 5554 5557 5559 5561 5562 5564 5566 5568 5569 5571 5572 5574 5576 5577 5577 5577 5578 5578 5578 5578 5576 5576 5573 5572 5572 5572 5572 5573 5574 5575 5576 5576 5577 5578 5579 5579 5579 5580 5580
5537 5539 5541 5542 5545 5547 5549 5551 5552 5554 5556 5559 5561 5562 5564 5565 5567 5568 5568 5569 5569 5570 5569 5568 5567 5566 5564 5564 5563 5561 5561 5562 5564 5565 5566 5567 5567 5568 5569 5569 5570 5570 5570
5528 5530 5531 5533 5536 5539 5541 5542 5543 5545 5547 5549 5551 5553 5555 5557 5558 5559 5559 5559 5560 5560 5560 5559 5558 5556 5554 5554 5554 5552 5551 5552 5553 5554 5556 5557 5558 5559 5559 5560 5560 5560 5560
5518 5520 5522 5524 5527 5529 5532 5534 5535 5537 5538 5540 5542 5543 5546 5548 5549 5550 5551 5551 5551 5551 5551 5550 5550 5548 5546 5546 5548 5545 5543 5543 5544 5545 5546 5547 5548 5549 5550 5550 5550 5551 5551
5508 5510 5513 5515 5518 5520 5522 5524 5526 5527 5528 5528 5531 5533 5536 5538 5540 5541 5541 5541 5542 5543 5542 5542 5543 5542 5540 5537 5539 5540 5539 5539 5534 5534 5535 5536 5537 5538 5539 5540 5541 5541 5541
5499 5501 5504 5506 5508 5510 5513 5515 5518 5519 5519 5520 5522 5524 5525 5528 5530 5531 5531 5532 5532 5533 5534 5535 5535 5535 5534 5532 5529 5529 5530 5531 5529 5526 5525 5526 5527 5528 5529 5530 5531 5532 5532
5489 5491 5494 5497 5500 5501 5504 5506 5508 5509 5510 5510 5511 5513 5515 5517 5519 5521 5521 5523 5523 5524 5524 5525 5526 5526 5527 5527 5524 5521 5519 5519 5520 5520 5519 5516 5517 5518 5519 5520 5521 5522 5522
5479 5482 5485 5488 5490 5492 5494 5495 5498 5499 5500 5501 5502 5503 5504 5506 5508 5510 5511 5513 5514 5515 5515 5515 5517 5518 5518 5518 5517 5516 5515 5513 5511 5511 5510 5509 5507 5508 5509 5511 5512 5513 5513